Simultaneous Nadir Overpasses (SNOs) Predictions

Prediction of SNOs between LANDSAT-8 and METOP-B Satellite Orbit:

Table of predicted SNOs for the next 14.0 days since TLE Epoch: 6/17/2023
Index Date (LANDSAT-8) Time (LANDSAT-8) Lat,Lon (LANDSAT-8) SZA (LANDSAT-8 ) Date (METOP-B) Time (METOP-B) Lat,Lon (METOP-B) SZA (METOP-B ) Distance(km) Time Diff (sec)
1 06/18/2023 19:52:27 -81.20, 103.02 119.97 06/18/2023 19:51:43 -81.19, 103.01 119.99 0.20 44
2 06/18/2023 20:41:52 81.22, -88.85 60.11 06/18/2023 20:42:21 81.22, -88.68 60.14 2.88 29
3 06/21/2023 15:26:42 -81.20, 169.56 120.00 06/21/2023 15:26:04 -81.20, 169.48 120.02 1.37 38
4 06/21/2023 16:16:08 81.21, -22.72 60.02 06/21/2023 16:16:43 81.21, -22.63 60.05 1.73 35
5 06/24/2023 11:00:57 -81.20,-124.08 120.00 06/24/2023 11:00:25 -81.20,-124.12 120.01 0.65 32
6 06/24/2023 11:50:22 81.22, 43.99 60.07 06/24/2023 11:51:03 81.22, 44.13 60.11 2.38 41
7 06/27/2023 06:35:10 -81.20, -57.52 119.91 06/27/2023 06:34:44 -81.21, -57.41 119.91 1.90 26
8 06/27/2023 07:24:35 81.23, 110.52 60.15 06/27/2023 07:25:23 81.22, 110.43 60.16 1.76 48
9 06/30/2023 02:09:24 -81.20, 8.86 119.80 06/30/2023 02:09:05 -81.20, 8.84 119.81 0.39 19



Historial Predications of SNOs between LANDSAT-8 and METOP-B
